Date,TemperatureHighF,TemperatureAvgF,TemperatureLowF,DewpointHighF,DewpointAvgF,DewpointLowF,HumidityHigh,HumidityAvg,HumidityLow,PressureMaxIn,PressureMinIn,WindSpeedMaxMPH,WindSpeedAvgMPH,GustSpeedMaxMPH,PrecipitationSumIn
2013-2-1,78.6,71.3,67.8,62.6,59.5,55.0,79,67,48,30.18,30.03,12,7,21,0.00
2013-2-2,84.4,72.3,68.5,62.8,60.0,56.5,80,66,45,30.18,30.09,9,4,14,0.00
2013-2-3,85.3,69.8,63.1,61.1,57.3,55.1,80,65,40,30.21,30.03,16,4,21,0.00
2013-2-4,79.2,70.8,68.2,65.6,59.3,54.2,77,67,51,30.15,30.06,13,4,24,0.00
2013-2-5,82.0,71.0,66.2,63.1,60.0,56.2,88,69,48,30.15,30.03,8,4,13,0.04
2013-2-6,76.8,69.3,65.8,67.9,64.1,60.5,98,84,67,30.12,30.03,8,5,13,0.30
2013-2-7,79.5,70.6,66.9,72.1,66.5,64.0,97,87,73,30.15,30.06,7,2,11,1.05
2013-2-8,88.5,73.6,68.5,66.6,63.3,60.9,86,72,44,30.18,30.09,7,2,15,0.04
2013-2-9,78.1,71.2,67.5,64.9,62.5,60.1,90,75,59,30.21,30.09,9,2,13,0.00
2013-2-10,78.1,70.9,69.1,67.2,63.3,60.2,91,77,64,30.24,30.09,10,5,20,0.13
2013-2-11,73.8,68.8,65.1,68.6,64.2,60.2,95,85,74,30.24,30.15,10,4,14,0.42
2013-2-12,73.0,68.0,65.5,62.3,59.0,54.3,84,73,62,30.24,30.09,11,2,13,0.00
2013-2-13,79.9,69.0,65.1,59.6,56.6,53.5,74,65,50,30.18,30.03,8,2,13,0.00
2013-2-14,83.1,69.8,66.2,61.6,58.2,54.6,84,67,46,30.15,30.03,6,2,13,0.00
2013-2-15,84.6,71.8,66.0,66.0,61.7,57.9,90,71,48,30.18,30.03,9,4,14,0.04
2013-2-16,80.1,71.5,67.3,64.4,60.4,55.3,86,69,47,30.18,30.03,14,5,23,0.04
2013-2-17,79.7,70.8,67.3,63.2,59.9,56.9,84,69,53,30.21,30.09,14,5,26,0.05
2013-2-18,78.8,72.3,65.5,63.3,58.5,55.4,92,63,47,30.18,30.09,12,7,21,0.04
2013-2-19,75.4,68.6,64.8,64.7,60.6,53.7,95,76,61,30.21,30.06,10,4,17,0.29
2013-2-20,79.7,70.4,67.1,65.7,62.3,59.3,91,76,55,30.18,30.09,11,5,20,0.22
2013-2-21,72.0,68.5,65.8,66.9,64.5,59.5,98,87,74,30.21,30.09,11,4,15,0.75
2013-2-22,77.0,69.5,66.7,66.8,64.8,61.9,98,85,66,30.21,30.06,11,5,18,0.80
2013-2-23,79.2,70.3,66.6,65.3,63.4,60.5,94,79,59,30.18,30.06,10,5,21,0.38
2013-2-24,79.3,69.8,66.6,65.3,61.4,59.4,89,75,53,30.18,30.03,11,4,20,0.05
2013-2-25,79.3,70.8,68.0,64.9,61.4,58.4,87,73,56,30.18,30.06,12,5,18,0.00
2013-2-26,77.7,70.4,66.2,63.5,61.5,59.4,89,74,59,30.21,30.12,11,4,15,0.08
2013-2-27,82.8,71.9,67.8,62.6,58.7,52.8,75,64,46,30.24,30.15,10,4,17,0.00
2013-2-28,82.9,71.3,68.2,61.8,58.7,52.5,80,65,45,30.24,30.15,12,4,22,0.00